This is the latest recevied weather packets stored in our database for station/object LU4HH-15. If no packets are shown the sender has not sent any weather packets the latest 10 day(s).
| Time | Temp. | Humidity | Pressure | Rain* | Wind** | Luminosity | Snow |
|---|---|---|---|---|---|---|---|
| 1788420145 | 17.22° C | 51% | 1022.5 hPa | - | - | - | - |
| 1788419240 | 17.22° C | 50% | 1022.5 hPa | - | - | - | - |
| 1788418335 | 17.78° C | 50% | 1022.2 hPa | - | - | - | - |
| 1788417434 | 17.78° C | 51% | 1021.9 hPa | - | - | - | - |
| 1788416533 | 17.78° C | 51% | 1021.7 hPa | - | - | - | - |
| 1788415632 | 17.78° C | 52% | 1021.6 hPa | - | - | - | - |
| 1788414731 | 18.33° C | 53% | 1021.5 hPa | - | - | - | - |
| 1788413830 | 18.33° C | 53% | 1021.3 hPa | - | - | - | - |
| 1788412930 | 18.89° C | 54% | 1021.2 hPa | - | - | - | - |
| 1788412028 | 19.44° C | 54% | 1021.2 hPa | - | - | - | - |
| 1788411127 | 19.44° C | 55% | 1021 hPa | - | - | - | - |
| 1788410226 | 19.44° C | 55% | 1020 hPa | - | - | - | - |
| 1788409326 | 19.44° C | 55% | 1019.8 hPa | - | - | - | - |
| 1788408424 | 19.44° C | 55% | 1019.7 hPa | - | - | - | - |
| 1788407523 | 20° C | 54% | 1019.5 hPa | - | - | - | - |
| 1788406648 | 19.44° C | 55% | 1019.5 hPa | - | - | - | - |
| 1788405747 | 19.44° C | 55% | 1019.6 hPa | - | - | - | - |
| 1788404846 | 19.44° C | 55% | 1019.6 hPa | - | - | - | - |
| 1788403945 | 19.44° C | 54% | 1019.6 hPa | - | - | - | - |
| 1788403044 | 19.44° C | 54% | 1019.5 hPa | - | - | - | - |
| 1788402143 | 20° C | 54% | 1019.4 hPa | - | - | - | - |
| 1788401241 | 20° C | 54% | 1019.3 hPa | - | - | - | - |
| 1788400340 | 20° C | 54% | 1019.2 hPa | - | - | - | - |
| 1788399439 | 20° C | 54% | 1019 hPa | - | - | - | - |
| 1788398539 | 20° C | 54% | 1019.1 hPa | - | - | - | - |
* Rain since midnight (hover to see other rain measurements)
** Current wind speed in m/s (hover to see current wind gust speed)